When you browse on this site, cookies collect data to enhance your experience and personalize the content and advertising you see.
Visit our Privacy Policy to learn more. By continuing to use the site, you agree to this use of cookies and data.

Stündliche Wetter Uige

Heute, 7 August, Freitag

Zeit Temperatur Niederschläge Wind Luftdruck Luftfeuchtigkeit
00:00 +19°C° 0 mm 1 m/S 693 mmHg 89%
01:00 +18°C° 0 mm 1 m/S 692 mmHg 96%
02:00 +18°C° 0 mm 1 m/S 692 mmHg 94%
03:00 +19°C° 0 mm 1 m/S 692 mmHg 92%
04:00 +19°C° 0 mm 1 m/S 692 mmHg 90%
05:00 +19°C° 0 mm 1 m/S 692 mmHg 88%
06:00 +19°C° 0 mm 1 m/S 693 mmHg 87%
07:00 +20°C° 0 mm 1 m/S 693 mmHg 85%
08:00 +22°C° 0 mm 1 m/S 694 mmHg 74%
09:00 +25°C° 0 mm 1 m/S 694 mmHg 62%
10:00 +27°C° 0 mm 1 m/S 695 mmHg 51%
11:00 +30°C° 0 mm 1 m/S 695 mmHg 42%
12:00 +33°C° 0 mm 1 m/S 694 mmHg 33%
13:00 +36°C° 0 mm 1 m/S 694 mmHg 24%
14:00 +36°C° 0 mm 1 m/S 693 mmHg 23%
15:00 +37°C° 0 mm 2 m/S 692 mmHg 23%
16:00 +37°C° 0 mm 2 m/S 691 mmHg 22%
17:00 +34°C° 0 mm 2 m/S 692 mmHg 29%
18:00 +30°C° 0 mm 2 m/S 692 mmHg 36%
19:00 +27°C° 0 mm 1 m/S 692 mmHg 42%
20:00 +25°C° 0 mm 1 m/S 692 mmHg 52%
21:00 +23°C° 0 mm 1 m/S 692 mmHg 61%
22:00 +21°C° 0 mm 1 m/S 693 mmHg 70%
23:00 +20°C° 0 mm 1 m/S 693 mmHg 79%

Morgen, 8 August, Samstag

Zeit Temperatur Niederschläge Wind Luftdruck Luftfeuchtigkeit
00:00 +18°C° 0 mm 1 m/S 692 mmHg 88%
01:00 +16°C° 0 mm 1 m/S 692 mmHg 96%
02:00 +16°C° 0 mm 1 m/S 692 mmHg 95%
03:00 +18°C° 0 mm 1 m/S 692 mmHg 93%
04:00 +18°C° 0 mm 1 m/S 692 mmHg 92%
05:00 +18°C° 0 mm 1 m/S 693 mmHg 90%
06:00 +19°C° 0 mm 1 m/S 693 mmHg 88%
07:00 +19°C° 0 mm 1 m/S 694 mmHg 86%
08:00 +22°C° 0 mm 1 m/S 694 mmHg 73%
09:00 +25°C° 0 mm 1 m/S 695 mmHg 61%
10:00 +27°C° 0 mm 1 m/S 695 mmHg 49%
11:00 +30°C° 0 mm 2 m/S 695 mmHg 42%
12:00 +32°C° 0 mm 2 m/S 694 mmHg 35%
13:00 +35°C° 0 mm 2 m/S 694 mmHg 27%
14:00 +35°C° 0 mm 2 m/S 693 mmHg 27%
15:00 +35°C° 0 mm 2 m/S 692 mmHg 26%
16:00 +35°C° 0 mm 3 m/S 692 mmHg 25%
17:00 +31°C° 0 mm 3 m/S 692 mmHg 32%
18:00 +28°C° 0 mm 2 m/S 692 mmHg 38%
19:00 +26°C° 0 mm 2 m/S 692 mmHg 44%
20:00 +24°C° 0 mm 2 m/S 692 mmHg 56%
21:00 +21°C° 0 mm 1 m/S 692 mmHg 67%
22:00 +19°C° 0 mm 1 m/S 693 mmHg 78%
23:00 +18°C° 0 mm 1 m/S 693 mmHg 84%

übermorgen, 9 August, Sonntag

Zeit Temperatur Niederschläge Wind Luftdruck Luftfeuchtigkeit
00:00 +16°C° 0 mm 1 m/S 692 mmHg 90%
01:00 +16°C° 0 mm 1 m/S 692 mmHg 96%
02:00 +16°C° 0 mm 1 m/S 692 mmHg 94%
03:00 +16°C° 0 mm 1 m/S 692 mmHg 91%
04:00 +18°C° 0 mm 1 m/S 691 mmHg 89%
05:00 +18°C° 0 mm 1 m/S 692 mmHg 87%
06:00 +18°C° 0 mm 1 m/S 692 mmHg 85%
07:00 +18°C° 0 mm 1 m/S 693 mmHg 82%
08:00 +21°C° 0 mm 1 m/S 693 mmHg 67%
09:00 +24°C° 0 mm 2 m/S 694 mmHg 53%
10:00 +27°C° 0 mm 2 m/S 694 mmHg 38%
11:00 +29°C° 0 mm 2 m/S 694 mmHg 33%
12:00 +31°C° 0 mm 2 m/S 693 mmHg 29%
13:00 +34°C° 0 mm 2 m/S 693 mmHg 24%
14:00 +34°C° 0 mm 2 m/S 692 mmHg 24%
15:00 +34°C° 0 mm 3 m/S 692 mmHg 24%
16:00 +34°C° 0 mm 3 m/S 691 mmHg 24%
17:00 +30°C° 0 mm 2 m/S 691 mmHg 29%
18:00 +27°C° 0 mm 2 m/S 691 mmHg 35%
19:00 +25°C° 0 mm 2 m/S 691 mmHg 40%
20:00 +23°C° 0 mm 2 m/S 691 mmHg 49%
21:00 +21°C° 0 mm 1 m/S 692 mmHg 58%
22:00 +19°C° 0 mm 1 m/S 692 mmHg 67%
23:00 +18°C° 0 mm 1 m/S 692 mmHg 75%

10 August, Montag

Zeit Temperatur Niederschläge Wind Luftdruck Luftfeuchtigkeit
00:00 +16°C° 0 mm 1 m/S 691 mmHg 83%
01:00 +15°C° 0 mm 1 m/S 691 mmHg 91%
02:00 +14°C° 0 mm 1 m/S 691 mmHg 93%
03:00 +14°C° 0 mm 1 m/S 690 mmHg 95%
04:00 +14°C° 0 mm 1 m/S 690 mmHg 97%
05:00 +14°C° 0 mm 1 m/S 691 mmHg 94%
06:00 +15°C° 0 mm 1 m/S 691 mmHg 91%
07:00 +16°C° 0 mm 1 m/S 692 mmHg 88%
08:00 +19°C° 0 mm 1 m/S 692 mmHg 75%
09:00 +22°C° 0 mm 1 m/S 693 mmHg 61%
10:00 +25°C° 0 mm 1 m/S 693 mmHg 48%
11:00 +28°C° 0 mm 1 m/S 693 mmHg 41%
12:00 +30°C° 0 mm 2 m/S 692 mmHg 33%
13:00 +34°C° 0 mm 2 m/S 692 mmHg 26%
14:00 +34°C° 0 mm 2 m/S 691 mmHg 26%
15:00 +34°C° 0 mm 2 m/S 691 mmHg 26%
16:00 +33°C° 0 mm 3 m/S 690 mmHg 26%
17:00 +30°C° 0 mm 2 m/S 690 mmHg 33%
18:00 +27°C° 0 mm 2 m/S 690 mmHg 40%
19:00 +24°C° 0 mm 2 m/S 690 mmHg 47%
20:00 +22°C° 0 mm 1 m/S 691 mmHg 54%
21:00 +20°C° 0 mm 1 m/S 691 mmHg 62%
22:00 +19°C° 0 mm 1 m/S 692 mmHg 70%
23:00 +16°C° 0 mm 1 m/S 691 mmHg 78%

11 August, Dienstag

Zeit Temperatur Niederschläge Wind Luftdruck Luftfeuchtigkeit
00:00 +15°C° 0 mm 1 m/S 691 mmHg 86%
01:00 +13°C° 0 mm 0 m/S 691 mmHg 94%
02:00 +13°C° 0 mm 0 m/S 691 mmHg 95%
03:00 +13°C° 0 mm 0 m/S 691 mmHg 96%
04:00 +12°C° 0 mm 0 m/S 690 mmHg 97%
05:00 +13°C° 0 mm 0 m/S 691 mmHg 93%
06:00 +14°C° 0 mm 0 m/S 691 mmHg 90%
07:00 +15°C° 0 mm 1 m/S 692 mmHg 87%
08:00 +20°C° 0 mm 1 m/S 692 mmHg 70%
09:00 +24°C° 0 mm 1 m/S 693 mmHg 54%
10:00 +28°C° 0 mm 1 m/S 694 mmHg 37%
11:00 +31°C° 0 mm 1 m/S 693 mmHg 32%
12:00 +34°C° 0 mm 2 m/S 693 mmHg 28%
13:00 +36°C° 0 mm 2 m/S 692 mmHg 23%
14:00 +35°C° 0 mm 2 m/S 691 mmHg 23%
15:00 +35°C° 0 mm 3 m/S 690 mmHg 24%
16:00 +35°C° 0 mm 3 m/S 690 mmHg 24%
17:00 +31°C° 0 mm 2 m/S 690 mmHg 30%
18:00 +28°C° 0 mm 2 m/S 690 mmHg 35%
19:00 +25°C° 0 mm 1 m/S 690 mmHg 41%
20:00 +24°C° 0 mm 1 m/S 691 mmHg 47%
21:00 +22°C° 0 mm 1 m/S 691 mmHg 53%
22:00 +20°C° 0 mm 1 m/S 692 mmHg 59%
23:00 +19°C° 0 mm 1 m/S 691 mmHg 68%

12 August, Mittwoch

Zeit Temperatur Niederschläge Wind Luftdruck Luftfeuchtigkeit
00:00 +18°C° 0 mm 1 m/S 691 mmHg 77%
01:00 +14°C° 0 mm 0 m/S 691 mmHg 87%
02:00 +14°C° 0 mm 0 m/S 691 mmHg 90%
03:00 +13°C° 0 mm 0 m/S 690 mmHg 93%
04:00 +13°C° 0 mm 0 m/S 690 mmHg 97%
05:00 +14°C° 0 mm 0 m/S 691 mmHg 94%
06:00 +14°C° 0 mm 0 m/S 691 mmHg 91%
07:00 +15°C° 0 mm 0 m/S 692 mmHg 88%
08:00 +19°C° 0 mm 0 m/S 693 mmHg 72%
09:00 +25°C° 0 mm 1 m/S 693 mmHg 55%
10:00 +29°C° 0 mm 1 m/S 694 mmHg 39%
11:00 +31°C° 0 mm 1 m/S 693 mmHg 35%
12:00 +34°C° 0 mm 2 m/S 693 mmHg 31%
13:00 +36°C° 0 mm 2 m/S 692 mmHg 26%
14:00 +35°C° 0 mm 2 m/S 691 mmHg 27%
15:00 +35°C° 0 mm 2 m/S 691 mmHg 28%
16:00 +34°C° 0 mm 2 m/S 690 mmHg 28%
17:00 +31°C° 0 mm 2 m/S 690 mmHg 33%
18:00 +28°C° 0 mm 2 m/S 690 mmHg 38%
19:00 +26°C° 0 mm 1 m/S 690 mmHg 43%
20:00 +24°C° 0 mm 1 m/S 691 mmHg 48%
21:00 +23°C° 0 mm 1 m/S 691 mmHg 54%
22:00 +21°C° 0 mm 1 m/S 692 mmHg 59%
23:00 +20°C° 0 mm 1 m/S 691 mmHg 67%
Mehr zeigen